Hourly Data Report for January 26, 2020

TORONTO CITY
ONTARIO
Current Station Operator: ECCC - MSC

43°40'00.000" N
79°24'00.000" W
112.50 m
6158355
71508
XTO

Download Data

Hourly Data (January 2020)
Hourly Data Report for January 26, 2020
TIME
LST
Temp Definition
°C
Dew Point Definition
°C
Rel Hum Definition
%
Precip. Amount Definition
mm

Wind Dir Definition
10's deg

Wind Spd Definition
km/h
Visibility Definition
km
Stn Press Definition
kPa
Hmdx Definition


Wind Chill Definition


Weather Definition


00:00 2.1 0.1 86 0.0       99.38     LegendNANA
01:00 2.2 0.0 85 0.0       99.35     LegendNANA
02:00 2.1 0.1 87 0.0       99.31     LegendNANA
03:00 2.1 -0.5 83 0.0       99.32     LegendNANA
04:00 2.0 -0.6 83 0.0       99.29     LegendNANA
05:00 1.8 -0.5 84 0.0       99.28     LegendNANA
06:00 1.8 -0.3 86 0.0       99.25     LegendNANA
07:00 1.9 -0.3 85 0.0       99.23     LegendNANA
08:00 2.3 -0.2 84 0.0       99.24     LegendNANA
09:00 2.4 -0.2 83 0.0       99.24     LegendNANA
10:00 2.6 -0.1 82 0.0       99.24     LegendNANA
11:00 3.4 -0.1 78 0.0       99.28     LegendNANA
12:00 3.7 -0.5 74 0.0       99.24     LegendNANA
13:00 4.0 -0.5 72 0.0       99.17     LegendNANA
14:00 3.9 -0.4 73 0.0       99.13     LegendNANA
15:00 3.8 -0.5 74 0.0       99.09     LegendNANA
16:00 3.0 0.3 82 0.0       99.09     LegendNANA
17:00 2.5 0.7 88 0.6       99.08     LegendNANA
18:00 2.5 0.6 87 0.3       99.08     LegendNANA
19:00 2.3 0.5 88 0.0       99.08     LegendNANA
20:00 2.1 0.2 87 0.0       99.08     LegendNANA
21:00 1.9 -0.2 86 0.2       99.07     LegendNANA
22:00 1.7 -0.4 86 0.2       99.06     LegendNANA
23:00 1.6 -0.7 85 0.0       99.04     LegendNANA

Notes on Data Quality.

Legend

  • E = Estimated
  • M = Missing
  • NA = Not Available*
  • [empty] = Indicates an unobserved value
Date modified: